Regional Weather Roundup
Issued by NWS Nashville, TN

Home | Current Version | Previous Version | Text Only | Print | Product List | Glossary On
Versions: 1 2 3 4 5 6 7 8 9 10 11 12 13 14 15 16 17 18 19 20 21 22 23 24 25 26 27 28 29 30 31 32 33 34 35 36 37 38 39 40 41 42 43 44 45 46 47 48 49 50
000
ASUS44 KOHX 272215
RWROHX
MIDDLE TENNESSEE HOURLY WEATHER ROUNDUP
NATIONAL WEATHER SERVICE NASHVILLE TN
400 PM CST TUE JAN 27 2015

NOTE: "FAIR" INDICATES FEW OR NO CLOUDS BELOW 12,000 FEET WITH
NO SIGNIFICANT WEATHER AND/OR OBSTRUCTIONS TO VISIBILITY.

* THESE REPORTS ARE NOT UNDER NWS QUALITY CONTROL AND MAY NOT
  REPORT WEATHER SUCH AS PRECIPITATION AND FOG.


TNZ005>011-023>034-057-059-062>066-078-080-272300
...NORTHERN MIDDLE TENNESSEE...

CITY           SKY/WX    TMP DP  RH WIND       PRES   REMARKS
CLARKSVILLE    CLOUDY    38  30  73 NW14      30.15R WCI  30
CROSSVILLE     CLOUDY    32  27  81 NW9       30.04R WCI  24
GALLATIN       CLOUDY    36  32  85 N5        30.12R WCI  32
DICKSON        CLOUDY    37  30  75 N9        30.11R WCI  31
LEBANON        CLOUDY    36  30  79 N9        30.10R WCI  29
LIVINGSTON     CLOUDY    33  31  93 N7        30.07  WCI  27
NASHVILLE      CLOUDY    39  29  67 NW10      30.13R WCI  32
WEST NASHVILLE CLOUDY    37  28  70 NW7       30.13R WCI  32
PORTLAND       CLOUDY    34  30  86 N7        30.10R WCI  28
SMYRNA         CLOUDY    39  31  73 N10       30.14R WCI  32
SPARTA         PTSUNNY   36  32  87 NW5       30.07R WCI  32
$$
TNZ056-058-060-061-075>077-079-093>097-272300
...SOUTHERN MIDDLE TENNESSEE...

CITY           SKY/WX    TMP DP  RH WIND       PRES   REMARKS
COLUMBIA       CLOUDY    46  36  66 N9        30.07R
LEWISBURG      MOSUNNY   42  31  65 N9        30.08R
MCMINNVILLE    CLOUDY    36  32  87 N8        30.09R WCI  29
MURFREESBORO   CLOUDY    38  31  76 NW7       30.11R WCI  33
SHELBYVILLE    PTSUNNY   39  34  81 N12       30.10R WCI  32
TULLAHOMA      CLOUDY    37  30  75 N10       30.08R WCI  30
WINCHESTER     CLOUDY    39  30  70 N8        30.09R WCI  34
$$


...KEY TO REMARKS...
VSB - VISIBILITY IN MILES
WCI - WIND CHILL INDEX
HX  - HEAT INDEX



USA.gov is the U.S. government's official web portal to all federal, state and local government web resources and services.